Weather History for Menominee, MI

Change the Weather History Date:

Friday, June 14, 2013

  Actual Average Record
Temperature  
Mean Temperature 58 °F -  
Max Temperature 69 °F 78 °F 100 °F (1987)
Min Temperature 46 °F 54 °F 36 °F (1958)
Degree Days  
Heating Degree Days 8    
Growing Degree Days 8 (Base 50)    
Moisture  
Dew Point 44 °F    
Average Humidity 60    
Maximum Humidity 94    
Minimum Humidity 28    
Precipitation  
Precipitation 0.00 in - - ()
Sea Level Pressure  
Sea Level Pressure 30.11 in    
Wind  
Wind Speed 6 mph (ESE)    
Max Wind Speed 12 mph    
Max Gust Speed -    
Visibility 10 miles    
Events      
Averages and records for this station are not official NWS values.
T = Trace of Precipitation, MM = Missing Value Source: NWS Daily Summary

Daily Weather History Graph

Daily Weather History Graph

Search for Another Location

Airport:

Trip Planner

Search our weather history database for the weather conditions in past years. The results will help you decide how hot, cold, wet, or windy it might be!

Date:

Astronomy

Jun. 14, 2013 Rise Set
Actual Time 5:02 AM CDT 8:39 PM CDT
Civil Twilight 4:25 AM CDT 9:16 PM CDT
Nautical Twilight 3:35 AM CDT 10:06 PM CDT
Astronomical Twilight 2:29 AM CDT 11:12 PM CDT
Moon 10:51 AM CDT (6/14) 11:59 PM CDT (6/14)
Length of Visible Light 16h 51m
Length of Day
15h 36m
Waxing Crescent, 30% of the Moon is Illuminated
Jun 14
Waxing Crescent
Jun 16
First Quarter
Jun 23
Full
Jun 29
Last Quarter
Jul 8
New

Hourly Weather History & Observations

Time (CDT) Temp. Windchill Dew Point Humidity Pressure Visibility Wind Dir Wind Speed Gust Speed Precip Events Conditions
12:15 AM 55.4 °F - 48.2 °F 77% 30.10 in 10.0 mi NNW 5.8 mph - N/A   Clear
12:35 AM 55.4 °F - 48.2 °F 77% 30.10 in 10.0 mi NNW 4.6 mph - N/A   Clear
12:55 AM 53.6 °F - 48.2 °F 82% 30.11 in 10.0 mi Calm Calm - N/A   Clear
1:15 AM 51.8 °F - 48.2 °F 88% 30.11 in 10.0 mi NNW 3.5 mph - N/A   Clear
1:35 AM 51.8 °F - 48.2 °F 88% 30.11 in 10.0 mi North 4.6 mph - N/A   Clear
1:55 AM 51.8 °F - 48.2 °F 88% 30.11 in 10.0 mi NNW 4.6 mph - N/A   Clear
2:15 AM 51.8 °F - 48.2 °F 88% 30.11 in 10.0 mi Calm Calm - N/A   Clear
2:35 AM 50.0 °F - 48.2 °F 94% 30.11 in 10.0 mi NW 3.5 mph - N/A   Clear
2:55 AM 51.8 °F - 46.4 °F 82% 30.12 in 10.0 mi NNW 6.9 mph - N/A   Clear
3:15 AM 51.8 °F - 46.4 °F 82% 30.11 in 10.0 mi North 5.8 mph - N/A   Clear
3:35 AM 48.2 °F - 44.6 °F 87% 30.11 in 10.0 mi NE 4.6 mph - N/A   Clear
3:55 AM 51.8 °F - 44.6 °F 76% 30.11 in 10.0 mi North 4.6 mph - N/A   Clear
4:15 AM 48.2 °F - 44.6 °F 87% 30.13 in 10.0 mi NNW 4.6 mph - N/A   Clear
4:35 AM 48.2 °F - 44.6 °F 87% 30.13 in 10.0 mi NNW 6.9 mph - N/A   Clear
4:55 AM 48.2 °F - 44.6 °F 87% 30.13 in 10.0 mi North 4.6 mph - N/A   Clear
5:15 AM 48.2 °F - 44.6 °F 87% 30.15 in 10.0 mi NNW 3.5 mph - N/A   Clear
5:35 AM 46.4 °F 44.3 °F 44.6 °F 93% 30.14 in 10.0 mi North 4.6 mph - N/A   Clear
5:55 AM 48.2 °F - 44.6 °F 87% 30.15 in 8.0 mi NNW 4.6 mph - N/A   Clear
6:15 AM 48.2 °F - 44.6 °F 87% 30.16 in 10.0 mi North 5.8 mph - N/A   Clear
6:35 AM 50.0 °F - 44.6 °F 82% 30.15 in 10.0 mi North 5.8 mph - N/A   Clear
6:55 AM 51.8 °F - 44.6 °F 76% 30.16 in 10.0 mi North 5.8 mph - N/A   Clear
7:15 AM 53.6 °F - 44.6 °F 72% 30.16 in 10.0 mi NNE 5.8 mph - N/A   Clear
7:35 AM 55.4 °F - 44.6 °F 67% 30.16 in 10.0 mi NE 6.9 mph - N/A   Clear
7:55 AM 57.2 °F - 44.6 °F 63% 30.16 in 10.0 mi NE 6.9 mph - N/A   Clear
8:15 AM 59.0 °F - 44.6 °F 59% 30.16 in 10.0 mi East 5.8 mph - N/A   Clear
8:35 AM 60.8 °F - 44.6 °F 55% 30.17 in 10.0 mi ESE 5.8 mph - N/A   Clear
8:55 AM 60.8 °F - 44.6 °F 55% 30.18 in 10.0 mi ESE 4.6 mph - N/A   Clear
9:15 AM 62.6 °F - 44.6 °F 52% 30.18 in 10.0 mi ESE 5.8 mph - N/A   Clear
9:35 AM 62.6 °F - 46.4 °F 55% 30.18 in 10.0 mi East 6.9 mph - N/A   Clear
9:55 AM 60.8 °F - 44.6 °F 55% 30.17 in 10.0 mi ESE 9.2 mph - N/A   Clear
10:15 AM 60.8 °F - 44.6 °F 55% 30.17 in 10.0 mi ESE 8.1 mph - N/A   Clear
10:35 AM 60.8 °F - 44.6 °F 55% 30.17 in 10.0 mi East 10.4 mph - N/A   Clear
10:55 AM 60.8 °F - 46.4 °F 59% 30.16 in 10.0 mi East 9.2 mph - N/A   Clear
11:15 AM 60.8 °F - 46.4 °F 59% 30.16 in 10.0 mi East 8.1 mph - N/A   Clear
11:35 AM 60.8 °F - 46.4 °F 59% 30.17 in 10.0 mi ESE 6.9 mph - N/A   Clear
11:55 AM 62.6 °F - 44.6 °F 52% 30.16 in 10.0 mi ESE 6.9 mph - N/A   Clear
12:15 PM 62.6 °F - 44.6 °F 52% 30.15 in 10.0 mi ESE 8.1 mph - N/A   Clear
12:35 PM 62.6 °F - 46.4 °F 55% 30.15 in 10.0 mi ESE 10.4 mph - N/A   Clear
12:55 PM 62.6 °F - 44.6 °F 52% 30.14 in 10.0 mi SE 9.2 mph - N/A   Clear
1:15 PM 64.4 °F - 44.6 °F 49% 30.13 in 10.0 mi ESE 9.2 mph - N/A   Clear
1:35 PM 66.2 °F - 44.6 °F 46% 30.13 in 10.0 mi ESE 11.5 mph - N/A   Clear
1:55 PM 64.4 °F - 42.8 °F 45% 30.13 in 10.0 mi ESE 10.4 mph - N/A   Clear
2:15 PM 66.2 °F - 39.2 °F 37% 30.13 in 10.0 mi ESE 8.1 mph - N/A   Clear
2:35 PM 66.2 °F - 41.0 °F 40% 30.13 in 10.0 mi ESE 9.2 mph - N/A   Clear
2:55 PM 66.2 °F - 39.2 °F 37% 30.12 in 10.0 mi ESE 10.4 mph - N/A   Clear
3:15 PM 66.2 °F - 39.2 °F 37% 30.12 in 10.0 mi ESE 10.4 mph - N/A   Clear
3:35 PM 66.2 °F - 35.6 °F 32% 30.11 in 10.0 mi SE 11.5 mph - N/A   Clear
3:55 PM 68.0 °F - 33.8 °F 28% 30.10 in 10.0 mi ESE 8.1 mph - N/A   Clear
4:15 PM 69.8 °F - 37.4 °F 31% 30.10 in 10.0 mi SSE 9.2 mph - N/A   Clear
4:35 PM 69.8 °F - 35.6 °F 28% 30.09 in 10.0 mi SSE 9.2 mph - N/A   Clear
4:55 PM 69.8 °F - 39.2 °F 33% 30.08 in 10.0 mi SE 9.2 mph - N/A   Clear
5:15 PM 69.8 °F - 37.4 °F 31% 30.07 in 10.0 mi SSE 10.4 mph - N/A   Clear
5:35 PM 69.8 °F - 37.4 °F 31% 30.06 in 8.0 mi SSE 9.2 mph - N/A   Clear
5:55 PM 68.0 °F - 33.8 °F 28% 30.05 in 10.0 mi SSE 8.1 mph - N/A   Clear
6:15 PM 68.0 °F - 37.4 °F 33% 30.05 in 10.0 mi SE 9.2 mph - N/A   Clear
6:35 PM 68.0 °F - 46.4 °F 46% 30.05 in 10.0 mi South 10.4 mph - N/A   Clear
6:55 PM 66.2 °F - 46.4 °F 49% 30.05 in 10.0 mi SSE 10.4 mph - N/A   Clear
7:15 PM 64.4 °F - 44.6 °F 49% 30.05 in 10.0 mi SSE 6.9 mph - N/A   Clear
7:35 PM 62.6 °F - 42.8 °F 48% 30.04 in 10.0 mi SSE 6.9 mph - N/A   Clear
7:55 PM 62.6 °F - 42.8 °F 48% 30.05 in 10.0 mi South 6.9 mph - N/A   Clear
8:15 PM 60.8 °F - 42.8 °F 52% 30.05 in 10.0 mi South 5.8 mph - N/A   Clear
8:35 PM 60.8 °F - 42.8 °F 52% 30.06 in 10.0 mi South 3.5 mph - N/A   Clear
8:55 PM 59.0 °F - 42.8 °F 55% 30.07 in 10.0 mi Calm Calm - N/A   Clear
9:15 PM 57.2 °F - 42.8 °F 59% 30.06 in 10.0 mi South 4.6 mph - N/A   Clear
9:35 PM 57.2 °F - 42.8 °F 59% 30.06 in 10.0 mi Calm Calm - N/A   Clear
9:55 PM 55.4 °F - 42.8 °F 63% 30.06 in 10.0 mi Calm Calm - N/A   Clear
10:15 PM 57.2 °F - 42.8 °F 59% 30.07 in 10.0 mi Calm Calm - N/A   Clear
10:35 PM 55.4 °F - 42.8 °F 63% 30.06 in 10.0 mi SE 4.6 mph - N/A   Clear
10:55 PM 57.2 °F - 44.6 °F 63% 30.03 in 10.0 mi South 5.8 mph - N/A   Mostly Cloudy
11:15 PM 57.2 °F - 42.8 °F 59% 30.01 in 10.0 mi SSW 5.8 mph - N/A   Mostly Cloudy
11:35 PM 57.2 °F - 42.8 °F 59% 30.02 in 10.0 mi South 3.5 mph - N/A   Scattered Clouds
11:55 PM 57.2 °F - 42.8 °F 59% 30.02 in 10.0 mi Calm Calm - N/A   Clear